Hourly Data Report for May 21, 2012

All times are specified in Local Standard Time (LST). Add 1 hour to adjust for Daylight Saving Time where and when it is observed.

HAMILTON A
ONTARIO

43°10'25.000" N
79°56'06.000" W
237.70 m
6153193
71263
YHM

Download Data

Hourly Data (May 2012)
Hourly Data Report for May 21, 2012
Temp Definition
°C
Dew Point Temp Definition
°C
Rel Hum Definition
%
Wind Dir Definition
10's deg

Wind Spd Definition
km/h
Visibility Definition
km
Stn Press Definition
kPa
Hmdx Definition


Wind Chill Definition


Weather Definition


TIME
00:00 Legend Double Dagger 14.7 8.7 67 6 12 10.0 98.98     LegendNANA
01:00 Legend Double Dagger 14.3 8.3 67 4 8 10.0 98.97     Mainly Clear
02:00 Legend Double Dagger 16.4 8.7 60 17 5 10.0 98.94     LegendNANA
03:00 Legend Double Dagger 15.4 10.0 70 18 8 10.0 98.99     LegendNANA
04:00 Legend Double Dagger 15.2 10.4 73 17 8 10.0 98.98     Mainly Clear
05:00 Legend Double Dagger 15.3 11.1 76 17 11 10.0 98.98     LegendNANA
06:00 Legend Double Dagger 17.7 10.9 64 18 15 10.0 98.97     LegendNANA
07:00 Legend Double Dagger 20.0 11.9 59 21 13 10.0 98.97     Mainly Clear
08:00 Legend Double Dagger 22.2 12.9 55 17 19 10.0 98.96 25   LegendNANA
09:00 Legend Double Dagger 22.5 12.6 53 18 16 10.0 98.95 25   LegendNANA
10:00 Legend Double Dagger 24.2 13.6 51 17 21 10.0 98.90 27   Mainly Clear
11:00 Legend Double Dagger 24.8 12.9 47 19 10 10.0 98.87 28   LegendNANA
12:00 Legend Double Dagger 25.8 13.8 47 16 17 10.0 98.80 29   LegendNANA
13:00 Legend Double Dagger 26.1 14.4 48 17 11 10.0 98.75 30   Mainly Clear
14:00 Legend Double Dagger 26.2 12.1 41 11 10 10.0 98.69 29   LegendNANA
15:00 Legend Double Dagger 26.6 12.5 41 16 7 10.0 98.61 29   LegendNANA
16:00 Legend Double Dagger 27.0 12.1 39 12 13 10.0 98.54 29   Mainly Clear
17:00 Legend Double Dagger 23.9 13.9 53 5 21 10.0 98.55 27   LegendNANA
18:00 Legend Double Dagger 22.7 13.6 56 7 21 10.0 98.53 26   LegendNANA
19:00 Legend Double Dagger 21.2 13.7 62 6 14 10.0 98.49     Mostly Cloudy
20:00 Legend Double Dagger 18.4 13.3 72 5 9 10.0 98.51     LegendNANA
21:00 Legend Double Dagger 18.3 13.2 72 35 13 10.0 98.58     LegendNANA
22:00 Legend Double Dagger 17.1 13.1 77 2 10 10.0 98.56     Mostly Cloudy
23:00 Legend Double Dagger 17.7 13.5 76 3 17 10.0 98.55     LegendNANA

Notes on Data Quality.

Legend

  • E = Estimated
  • M = Missing
  • NA = Not Available
  • ‡ = Partner data that is not subject to review by the National Climate Archives
Date modified: